FW7499 Weather Reports


Display with metric or nautical units.
time (UTC)temp
F
wind
direction
speed
MPH
gust
MPH
rain 1hr
in
rain 24hr
in
rain mn
in
humidity
%
barometer
mb
20220629162015 87 248 3.0 9.0 0.00 0.00 0.00 48 1018.9
20220629161015 86 158 3.0 8.0 0.00 0.00 0.00 48 1019.0
20220629160015 86 270 3.0 11.0 0.00 0.00 0.00 47 1019.0
20220629155015 85 203 3.0 8.0 0.00 0.00 0.00 50 1019.2
20220629154015 85 180 2.0 7.0 0.00 0.00 0.00 50 1019.2
20220629153015 85 248 2.0 13.0 0.00 0.00 0.00 49 1019.3
20220629152015 84 270 3.0 9.0 0.00 0.00 0.00 47 1019.3
20220629151015 83 248 2.0 10.0 0.00 0.00 0.00 49 1019.3
20220629150015 82 203 2.0 7.0 0.00 0.00 0.00 50 1019.3
20220629145015 81 248 3.0 8.0 0.00 0.00 0.00 50 1019.4
20220629144015 81 248 2.0 8.0 0.00 0.00 0.00 53 1019.4
20220629143015 80 270 3.0 8.0 0.00 0.00 0.00 54 1019.4
20220629142015 79 203 2.0 6.0 0.00 0.00 0.00 56 1019.4
20220629141015 78 315 1.0 4.0 0.00 0.00 0.00 60 1019.5
20220629140015 77 225 1.0 10.0 0.00 0.00 0.00 60 1019.6
20220629135015 76 180 2.0 10.0 0.00 0.00 0.00 61 1019.6
20220629134015 75 158 1.0 7.0 0.00 0.00 0.00 63 1019.5
20220629133015 74 180 1.0 6.0 0.00 0.00 0.00 64 1019.5
20220629132015 73 180 1.0 5.0 0.00 0.00 0.00 64 1019.6
20220629131015 73 225 1.0 4.0 0.00 0.00 0.00 67 1019.5
20220629130015 72 158 1.0 4.0 0.00 0.00 0.00 69 1019.4
20220629125015 71 158 1.0 4.0 0.00 0.00 0.00 71 1019.5
20220629124015 70 203 1.0 4.0 0.00 0.00 0.00 74 1019.4
20220629123015 69 0.0 2.0 0.00 0.00 0.00 77 1019.4
20220629122015 68 0.0 2.0 0.00 0.00 0.00 80 1019.3
20220629121015 67 0.0 3.0 0.00 0.00 0.00 82 1019.3
20220629120015 66 0.0 1.0 0.00 0.00 0.00 84 1019.3
20220629115015 66 0.0 1.0 0.00 0.00 0.00 85 1019.2
20220629114015 65 0.0 1.0 0.00 0.00 0.00 85 1019.2
20220629113015 65 0.0 3.0 0.00 0.00 0.00 86 1019.2
20220629112015 64 0.0 2.0 0.00 0.00 0.00 87 1019.1
20220629111017 64 0.0 1.0 0.00 0.00 0.00 87 1019.1
20220629110016 64 0.0 0.0 0.00 0.00 0.00 87 1019.1
20220629105016 65 0.0 0.0 0.00 0.00 0.00 86 1019.0
20220629104017 65 0.0 1.0 0.00 0.00 0.00 87 1018.9
20220629103016 65 0.0 1.0 0.00 0.00 0.00 86 1018.9
20220629102016 65 0.0 0.0 0.00 0.00 0.00 86 1019.0
20220629101016 65 0.0 2.0 0.00 0.00 0.00 86 1018.8
20220629100017 65 0.0 0.0 0.00 0.00 0.00 86 1018.8
20220629095017 65 0.0 0.0 0.00 0.00 0.00 85 1018.8
20220629094016 65 0.0 0.0 0.00 0.00 0.00 84 1018.8
20220629093016 66 0.0 0.0 0.00 0.00 0.00 83 1018.8
20220629092016 66 0.0 0.0 0.00 0.00 0.00 84 1018.8
20220629091017 66 0.0 0.0 0.00 0.00 0.00 83 1018.9
20220629090016 66 0.0 0.0 0.00 0.00 0.00 83 1018.7
20220629085016 66 0.0 0.0 0.00 0.00 0.00 83 1018.7
20220629084016 66 0.0 0.0 0.00 0.00 0.00 83 1018.7
20220629083017 66 0.0 0.0 0.00 0.00 0.00 82 1018.7
20220629082017 67 0.0 0.0 0.00 0.00 0.00 81 1018.8
20220629081016 67 0.0 0.0 0.00 0.00 0.00 81 1018.8
20220629080016 67 0.0 0.0 0.00 0.00 0.00 80 1018.8
20220629075016 67 0.0 0.0 0.00 0.00 0.00 80 1018.8
20220629074016 68 0.0 0.0 0.00 0.00 0.00 80 1018.8
20220629073016 67 0.0 0.0 0.00 0.00 0.00 80 1018.8
20220629072016 68 0.0 0.0 0.00 0.00 0.00 79 1018.8
20220629071016 68 0.0 0.0 0.00 0.00 0.00 79 1018.7
20220629070016 69 0.0 0.0 0.00 0.00 0.00 78 1018.7
20220629065016 69 0.0 0.0 0.00 0.00 0.00 77 1018.6
20220629064016 69 0.0 0.0 0.00 0.00 0.00 77 1018.5
20220629063016 69 0.0 0.0 0.00 0.00 0.00 77 1018.5
20220629062016 70 0.0 1.0 0.00 0.00 0.00 76 1018.6
20220629061016 70 0.0 1.0 0.00 0.00 0.00 75 1018.5
20220629060016 70 0.0 2.0 0.00 0.00 0.00 74 1018.5
20220629055016 71 0.0 2.0 0.00 0.00 0.00 73 1018.5
20220629054016 72 0.0 1.0 0.00 0.00 0.00 71 1018.5
20220629053016 72 0.0 2.0 0.00 0.00 0.00 70 1018.5
20220629052016 73 0.0 0.0 0.00 0.00 0.00 68 1018.5
20220629051016 74 0.0 1.0 0.00 0.00 0.00 66 1018.3
20220629050016 74 0.0 2.0 0.00 0.00 0.00 67 1018.4
20220629045016 75 0.0 1.0 0.00 0.00 0.00 65 1018.4
20220629044016 75 0.0 2.0 0.00 0.00 0.00 64 1018.2
20220629043016 76 0.0 6.0 0.00 0.00 0.00 62 1018.1
20220629042016 76 0.0 2.0 0.00 0.00 0.00 62 1017.9
20220629041016 76 0.0 3.0 0.00 0.00 0.00 63 1017.9
20220629040016 76 0.0 0.0 0.00 0.00 0.00 63 1017.9
20220629035016 77 0.0 3.0 0.00 0.00 0.00 62 1018.0
20220629034016 77 0.0 1.0 0.00 0.00 0.00 61 1018.0
20220629033017 78 0.0 2.0 0.00 0.00 0.00 60 1017.9
20220629032017 78 135 1.0 5.0 0.00 0.00 0.00 58 1017.8
20220629031017 79 0 1.0 3.0 0.00 0.00 0.00 57 1017.6
20220629030016 79 270 1.0 4.0 0.00 0.00 0.00 57 1017.5
20220629025016 79 180 1.0 4.0 0.00 0.00 0.00 57 1017.3
20220629024017 80 180 1.0 3.0 0.00 0.00 0.00 56 1017.1
20220629023017 80 158 1.0 4.0 0.00 0.00 0.00 55 1017.1
20220629022016 81 158 1.0 4.0 0.00 0.00 0.00 53 1017.0
20220629021016 82 158 1.0 4.0 0.00 0.00 0.00 52 1016.9
20220629020017 82 248 1.0 6.0 0.00 0.00 0.00 52 1017.0
20220629015016 83 180 1.0 4.0 0.00 0.00 0.00 51 1016.9
20220629014016 83 315 1.0 7.0 0.00 0.00 0.00 51 1017.0
20220629013016 83 270 1.0 7.0 0.00 0.00 0.00 49 1017.0
20220629012016 84 270 1.0 9.0 0.00 0.00 0.00 49 1016.8
20220629011016 84 158 1.0 6.0 0.00 0.00 0.00 47 1016.8
20220629010016 85 180 2.0 8.0 0.00 0.00 0.00 46 1016.8
20220629005016 85 225 1.0 9.0 0.00 0.00 0.00 45 1017.0
20220629004016 86 270 1.0 6.0 0.00 0.00 0.00 45 1017.0
20220629003016 86 270 2.0 6.0 0.00 0.00 0.00 45 1017.0
20220629002016 86 270 1.0 6.0 0.00 0.00 0.00 46 1016.9
20220629001016 86 248 3.0 8.0 0.00 0.00 0.00 44 1017.0
20220629000016 87 225 2.0 8.0 0.00 0.00 0.00 43 1017.1
20220628235016 88 248 3.0 11.0 0.00 0.00 0.00 41 1017.1
20220628234016 88 293 2.0 8.0 0.00 0.00 0.00 42 1017.2
20220628233016 88 270 2.0 7.0 0.00 0.00 0.00 41 1017.2
20220628232016 88 248 3.0 11.0 0.00 0.00 0.00 40 1017.2
20220628231016 88 225 3.0 9.0 0.00 0.00 0.00 42 1017.3
20220628230016 88 203 2.0 10.0 0.00 0.00 0.00 42 1017.4
20220628225016 88 248 4.0 11.0 0.00 0.00 0.00 43 1017.4
20220628224016 88 270 3.0 8.0 0.00 0.00 0.00 42 1017.5
20220628223016 88 270 3.0 9.0 0.00 0.00 0.00 42 1017.7
20220628222016 89 270 3.0 8.0 0.00 0.00 0.00 41 1017.9
20220628221016 88 293 3.0 11.0 0.00 0.00 0.00 41 1017.7
20220628220016 88 158 3.0 12.0 0.00 0.00 0.00 41 1017.8
20220628215016 89 315 3.0 8.0 0.00 0.00 0.00 41 1017.9
20220628214016 88 225 4.0 11.0 0.00 0.00 0.00 42 1017.9
20220628213016 88 248 4.0 13.0 0.00 0.00 0.00 41 1018.0
20220628212016 87 270 4.0 14.0 0.00 0.00 0.00 41 1018.0
20220628211016 88 293 3.0 9.0 0.00 0.00 0.00 44 1018.2
20220628210016 88 248 3.0 11.0 0.00 0.00 0.00 42 1018.3
20220628205016 87 248 4.0 13.0 0.00 0.00 0.00 43 1018.3
20220628204016 87 248 3.0 9.0 0.00 0.00 0.00 42 1018.3
20220628203016 88 248 4.0 16.0 0.00 0.00 0.00 42 1018.4
20220628202016 87 248 4.0 14.0 0.00 0.00 0.00 41 1018.5
20220628201016 87 270 3.0 10.0 0.00 0.00 0.00 43 1018.5
20220628200016 87 270 3.0 13.0 0.00 0.00 0.00 45 1018.6
20220628195016 87 270 4.0 11.0 0.00 0.00 0.00 41 1018.5
20220628194016 86 248 4.0 9.0 0.00 0.00 0.00 43 1018.5
20220628193016 86 248 4.0 13.0 0.00 0.00 0.00 43 1018.9
20220628192016 85 293 3.0 10.0 0.00 0.00 0.00 42 1019.2
20220628191015 85 270 4.0 15.0 0.00 0.00 0.00 43 1019.5
20220628190016 85 248 4.0 12.0 0.00 0.00 0.00 44 1019.6
20220628185016 84 270 4.0 13.0 0.00 0.00 0.00 44 1019.8
20220628184015 84 293 3.0 11.0 0.00 0.00 0.00 45 1019.9
20220628183016 84 248 3.0 10.0 0.00 0.00 0.00 48 1020.0
20220628182016 84 270 3.0 8.0 0.00 0.00 0.00 49 1020.1
20220628181015 83 270 4.0 10.0 0.00 0.00 0.00 50 1020.1
20220628180015 83 158 3.0 9.0 0.00 0.00 0.00 50 1020.3
20220628175015 82 315 3.0 8.0 0.00 0.00 0.00 50 1020.3
20220628174016 82 293 3.0 8.0 0.00 0.00 0.00 49 1020.3
20220628173016 82 248 4.0 12.0 0.00 0.00 0.00 51 1020.5
20220628172016 81 270 4.0 11.0 0.00 0.00 0.00 49 1020.4
20220628171016 80 158 3.0 11.0 0.00 0.00 0.00 50 1020.5
20220628170016 81 248 3.0 7.0 0.00 0.00 0.00 49 1020.6
20220628165015 80 203 3.0 14.0 0.00 0.00 0.00 49 1020.7
20220628164015 80 270 3.0 11.0 0.00 0.00 0.00 50 1020.8
20220628163015 79 270 3.0 13.0 0.00 0.00 0.00 49 1020.7